Starlink 4591

operational
NORAD ID: 53607 Int'l Des: 2022-104 Owner: SPXS Country: US Constellation: starlink
LEOCIRCULAR

Starlink 4591について

説明を読み込み中...

リアルタイム位置

3D地球を読み込み中...

次回通過

高度履歴

Altitude vs Time

uPlot chart will show altitude changes over time

軌道要素

1 53607U 22104V 25350.88516490 .00001814 00000-0 13205-3 0 9994
2 53607 53.2154 250.8947 0001550 90.5934 269.5235 15.08845004183187
Epoch: Dec 16, 2025 • Age: 10 hours

現在のステータス

高度 540.1 km
速度 7.59 km/s
衛星直下点 4.67°N, 64.31°E
打ち上げ日 Aug 28, 2022
運用期間 3.3 years
タイプ internet

技術仕様

分類 Payload
質量 300.00 kg
乾燥質量 290.00 kg
総質量 300.00 kg
長さ 0.20 m
直径 2.80 m
スパン 9.00 m
形状 Box + pan
製造者 SPXS
バスタイプ Starlink
フェーズステータス In Orbit
所有者/国 SPXS/US

大規模コンステレーション

Loading constellations...